Location: Hope
(40.9110°N, 74.9680°W)
Time: 23:16:04
(UTC-04:00)

N. Korean satellite - Visible Passes

Search period start: 29 September 2020 00:00
Search period end: 09 October 2020 00:00
Orbit: 455 x 503 km, 97.2° (Epoch: 29 September)

Date Brightness Start Highest point End Pass type
(mag) Time Alt. Az. Time Alt. Az. Time Alt. Az.
29 Sep 9.2 05:54:32 10° NE 05:57:32 24° E 06:00:28 10° SSE visible
30 Sep 10.1 05:29:57 10° ENE 05:31:18 12° E 05:32:37 10° ESE visible
02 Oct 8.2 06:09:26 10° NNE 06:12:48 38° E 06:16:05 10° SSE visible
03 Oct 9.7 05:44:06 10° NE 05:46:36 18° E 05:49:04 10° SE visible
04 Oct 10.8 19:01:18 10° WSW 19:02:08 11° W 19:02:58 10° WNW visible
05 Oct 7.1 06:24:27 10° NNE 06:27:59 63° E 06:31:26 10° S visible
06 Oct 8.9 05:58:46 10° NE 06:01:50 27° E 06:04:51 10° SSE visible
07 Oct 10.0 05:33:53 10° ENE 05:35:35 13° E 05:37:17 10° ESE visible
